Time,TemperatureF,DewpointF,PressureIn,WindDirection,WindDirectionDegrees,WindSpeedMPH,WindSpeedGustMPH,Humidity,HourlyPrecipIn,Conditions,Clouds,dailyrainin,SoftwareType,DateUTC
2013-12-19 00:06:00,26.1,14.5,29.89,WNW,286,1.0,1.0,61,0.00,,,0.00,Wunderground v.1.15,2013-12-19 05:06:00,
2013-12-19 00:16:00,26.1,14.5,29.89,WNW,294,2.0,3.0,61,0.00,,,0.00,Wunderground v.1.15,2013-12-19 05:16:00,
2013-12-19 00:35:00,27.0,13.8,29.89,WNW,283,5.0,5.0,57,0.00,,,0.00,Wunderground v.1.15,2013-12-19 05:35:00,
2013-12-19 00:46:00,26.7,13.9,29.89,WNW,284,1.0,1.0,58,0.00,,,0.00,Wunderground v.1.15,2013-12-19 05:46:00,
2013-12-19 00:56:00,26.7,13.5,29.89,North,355,3.0,3.0,57,0.00,,,0.00,Wunderground v.1.15,2013-12-19 05:56:00,
2013-12-19 01:06:00,26.7,13.5,29.89,WNW,295,2.0,5.0,57,0.00,,,0.00,Wunderground v.1.15,2013-12-19 06:06:00,
2013-12-19 01:16:00,26.9,13.7,29.89,NNW,329,3.0,4.0,57,0.00,,,0.00,Wunderground v.1.15,2013-12-19 06:16:00,
2013-12-19 01:26:00,26.9,13.7,29.89,NNW,338,3.0,5.0,57,0.00,,,0.00,Wunderground v.1.15,2013-12-19 06:26:00,
2013-12-19 01:36:00,26.9,13.7,29.89,North,5,4.0,5.0,57,0.00,,,0.00,Wunderground v.1.15,2013-12-19 06:36:00,
2013-12-19 02:06:00,26.9,13.7,29.89,WNW,300,4.0,6.0,57,0.00,,,0.00,Wunderground v.1.15,2013-12-19 07:06:00,
2013-12-19 02:16:00,27.0,13.8,29.91,NW,325,5.0,5.0,57,0.00,,,0.00,Wunderground v.1.15,2013-12-19 07:16:00,
2013-12-19 02:56:00,26.9,14.9,29.91,NW,318,4.0,4.0,60,0.00,,,0.00,Wunderground v.1.15,2013-12-19 07:56:00,
2013-12-19 03:36:00,26.9,15.2,29.92,NNW,348,2.0,3.0,61,0.00,,,0.00,Wunderground v.1.15,2013-12-19 08:36:00,
2013-12-19 03:46:00,26.9,15.2,29.91,North,10,3.0,3.0,61,0.00,,,0.00,Wunderground v.1.15,2013-12-19 08:46:00,
2013-12-19 03:56:00,26.9,15.2,29.91,West,273,2.0,2.0,61,0.00,,,0.00,Wunderground v.1.15,2013-12-19 08:56:00,
2013-12-19 04:05:00,26.4,17.3,29.92,NE,36,1.0,3.0,68,0.00,,,0.00,Wunderground v.1.15,2013-12-19 09:05:00,
2013-12-19 04:16:00,26.0,16.9,29.92,ENE,78,1.0,1.0,68,0.00,,,0.00,Wunderground v.1.15,2013-12-19 09:16:00,
2013-12-19 04:26:00,25.7,17.3,29.92,SE,130,1.0,1.0,70,0.00,,,0.00,Wunderground v.1.15,2013-12-19 09:26:00,
2013-12-19 04:36:00,25.8,17.4,29.92,SE,130,2.0,2.0,70,0.00,,,0.00,Wunderground v.1.15,2013-12-19 09:36:00,
2013-12-19 04:46:00,25.7,17.6,29.91,SE,130,2.0,3.0,71,0.00,,,0.00,Wunderground v.1.15,2013-12-19 09:46:00,
2013-12-19 04:56:00,25.4,17.3,29.91,SE,135,2.0,2.0,71,0.00,,,0.00,Wunderground v.1.15,2013-12-19 09:56:00,
2013-12-19 05:06:00,25.8,17.0,29.91,SE,138,2.0,2.0,69,0.00,,,0.00,Wunderground v.1.15,2013-12-19 10:06:00,
2013-12-19 05:16:00,25.7,16.9,29.91,NW,323,3.0,3.0,69,0.00,,,0.00,Wunderground v.1.15,2013-12-19 10:16:00,
2013-12-19 05:36:00,26.3,16.8,29.91,NW,314,8.0,10.0,67,0.00,,,0.00,Wunderground v.1.15,2013-12-19 10:36:00,
2013-12-19 05:46:00,26.1,16.6,29.91,NW,305,7.0,7.0,67,0.00,,,0.00,Wunderground v.1.15,2013-12-19 10:46:00,
2013-12-19 06:05:00,25.8,16.3,29.92,West,269,2.0,2.0,67,0.00,,,0.00,Wunderground v.1.15,2013-12-19 11:05:00,
2013-12-19 06:16:00,23.8,17.0,29.92,East,96,2.0,4.0,75,0.00,,,0.00,Wunderground v.1.15,2013-12-19 11:16:00,
2013-12-19 06:26:00,22.4,17.2,29.92,East,84,3.0,3.0,80,0.00,,,0.00,Wunderground v.1.15,2013-12-19 11:26:00,
2013-12-19 06:46:00,21.9,18.1,29.92,ESE,123,3.0,3.0,85,0.00,,,0.00,Wunderground v.1.15,2013-12-19 11:46:00,
2013-12-19 06:56:00,21.8,18.3,29.92,ESE,123,2.0,3.0,86,0.00,,,0.00,Wunderground v.1.15,2013-12-19 11:56:00,
2013-12-19 08:36:00,21.6,18.9,29.91,SE,133,2.0,2.0,89,0.00,,,0.00,Wunderground v.1.15,2013-12-19 13:36:00,
2013-12-19 08:46:00,21.8,19.1,29.91,SE,133,2.0,2.0,89,0.00,,,0.00,Wunderground v.1.15,2013-12-19 13:46:00,
2013-12-19 09:06:00,22.1,19.4,29.91,SE,133,3.0,3.0,89,0.00,,,0.00,Wunderground v.1.15,2013-12-19 14:06:00,
2013-12-19 09:16:00,22.4,19.6,29.91,SE,133,3.0,3.0,89,0.00,,,0.00,Wunderground v.1.15,2013-12-19 14:16:00,
2013-12-19 09:36:00,22.9,19.9,29.91,SE,133,2.0,2.0,88,0.00,,,0.00,Wunderground v.1.15,2013-12-19 14:36:00,
2013-12-19 09:46:00,23.2,20.2,29.91,SE,133,2.0,2.0,88,0.00,,,0.00,Wunderground v.1.15,2013-12-19 14:46:00,
2013-12-19 10:06:00,23.6,20.3,29.91,SE,133,1.0,2.0,87,0.00,,,0.00,Wunderground v.1.15,2013-12-19 15:06:00,
2013-12-19 10:16:00,23.9,20.6,29.90,SE,133,2.0,2.0,87,0.00,,,0.00,Wunderground v.1.15,2013-12-19 15:16:00,
2013-12-19 10:36:00,24.2,20.3,29.90,SE,128,3.0,3.0,85,0.00,,,0.00,Wunderground v.1.15,2013-12-19 15:36:00,
2013-12-19 11:06:00,25.0,20.8,29.88,SE,133,3.0,3.0,84,0.00,,,0.00,Wunderground v.1.15,2013-12-19 16:06:00,
2013-12-19 11:16:00,25.1,20.7,29.86,SE,133,3.0,5.0,83,0.00,,,0.00,Wunderground v.1.15,2013-12-19 16:16:00,
2013-12-19 11:36:00,25.3,20.6,29.86,ESE,103,3.0,3.0,82,0.00,,,0.00,Wunderground v.1.15,2013-12-19 16:36:00,
2013-12-19 11:46:00,25.3,20.6,29.86,SE,134,3.0,3.0,82,0.00,,,0.00,Wunderground v.1.15,2013-12-19 16:46:00,
2013-12-19 12:16:00,26.0,20.7,29.84,SE,134,2.0,2.0,80,0.00,,,0.00,Wunderground v.1.15,2013-12-19 17:16:00,
2013-12-19 12:26:00,26.1,20.5,29.84,East,100,2.0,2.0,79,0.00,,,0.00,Wunderground v.1.15,2013-12-19 17:26:00,
2013-12-19 12:46:00,26.3,20.7,29.83,SE,138,3.0,3.0,79,0.00,,,0.00,Wunderground v.1.15,2013-12-19 17:46:00,
2013-12-19 12:56:00,26.4,20.8,29.83,SE,134,3.0,5.0,79,0.00,,,0.00,Wunderground v.1.15,2013-12-19 17:56:00,
2013-12-19 13:36:00,26.9,20.3,29.84,SE,138,4.0,4.0,76,0.00,,,0.00,Wunderground v.1.15,2013-12-19 18:36:00,
2013-12-19 13:46:00,27.0,20.4,29.83,SE,134,4.0,5.0,76,0.00,,,0.00,Wunderground v.1.15,2013-12-19 18:46:00,
2013-12-19 14:06:00,27.2,20.3,29.83,ESE,113,3.0,4.0,75,0.00,,,0.00,Wunderground v.1.15,2013-12-19 19:06:00,
2013-12-19 14:16:00,27.6,20.7,29.83,SE,138,4.0,4.0,75,0.00,,,0.00,Wunderground v.1.15,2013-12-19 19:16:00,
2013-12-19 14:26:00,28.1,20.9,29.83,SW,217,4.0,4.0,74,0.00,,,0.00,Wunderground v.1.15,2013-12-19 19:26:00,
2013-12-19 14:36:00,28.4,20.8,29.84,SSE,150,3.0,5.0,73,0.00,,,0.00,Wunderground v.1.15,2013-12-19 19:36:00,
2013-12-19 15:06:00,28.4,20.5,29.85,SE,134,2.0,2.0,72,0.00,,,0.00,Wunderground v.1.15,2013-12-19 20:06:00,
2013-12-19 15:16:00,28.7,20.8,29.85,SE,134,0.0,2.0,72,0.00,,,0.00,Wunderground v.1.15,2013-12-19 20:16:00,
2013-12-19 15:36:00,28.5,20.6,29.86,SE,134,1.0,3.0,72,0.00,,,0.00,Wunderground v.1.15,2013-12-19 20:36:00,
2013-12-19 15:46:00,28.5,20.6,29.87,SE,134,1.0,1.0,72,0.00,,,0.00,Wunderground v.1.15,2013-12-19 20:46:00,
2013-12-19 15:56:00,28.7,20.8,29.87,SE,134,1.0,1.0,72,0.00,,,0.00,Wunderground v.1.15,2013-12-19 20:56:00,
2013-12-19 16:16:00,28.8,20.6,29.87,SE,134,2.0,2.0,71,0.00,,,0.00,Wunderground v.1.15,2013-12-19 21:16:00,
2013-12-19 16:26:00,29.3,21.1,29.87,SE,134,3.0,3.0,71,0.00,,,0.00,Wunderground v.1.15,2013-12-19 21:26:00,
2013-12-19 16:56:00,29.8,20.9,29.88,SE,144,1.0,1.0,69,0.00,,,0.00,Wunderground v.1.15,2013-12-19 21:56:00,
2013-12-19 17:06:00,30.7,21.4,29.88,SSE,155,2.0,4.0,68,0.00,,,0.00,Wunderground v.1.15,2013-12-19 22:06:00,
2013-12-19 17:16:00,31.9,22.5,29.88,West,262,3.0,3.0,68,0.00,,,0.00,Wunderground v.1.15,2013-12-19 22:16:00,
2013-12-19 17:36:00,31.2,21.2,29.89,SSE,161,2.0,2.0,66,0.00,,,0.00,Wunderground v.1.15,2013-12-19 22:36:00,
2013-12-19 17:46:00,32.1,23.1,29.88,SSE,160,2.0,2.0,69,0.00,,,0.00,Wunderground v.1.15,2013-12-19 22:46:00,
2013-12-19 18:06:00,33.8,23.6,29.89,WSW,253,2.0,2.0,66,0.00,,,0.00,Wunderground v.1.15,2013-12-19 23:06:00,
2013-12-19 18:16:00,34.1,23.9,29.90,West,265,2.0,6.0,66,0.00,,,0.00,Wunderground v.1.15,2013-12-19 23:16:00,
2013-12-19 18:35:00,35.0,24.4,29.90,NW,306,8.0,8.0,65,0.00,,,0.00,Wunderground v.1.15,2013-12-19 23:35:00,
2013-12-19 18:46:00,35.2,24.6,29.91,West,277,11.0,11.0,65,0.00,,,0.00,Wunderground v.1.15,2013-12-19 23:46:00,
2013-12-19 19:06:00,35.3,24.7,29.91,West,263,6.0,6.0,65,0.00,,,0.00,Wunderground v.1.15,2013-12-20 00:06:00,
2013-12-19 19:16:00,35.3,25.1,29.92,West,275,7.0,11.0,66,0.00,,,0.00,Wunderground v.1.15,2013-12-20 00:16:00,
2013-12-19 19:36:00,35.2,25.0,29.93,NNE,25,6.0,6.0,66,0.00,,,0.00,Wunderground v.1.15,2013-12-20 00:36:00,
2013-12-19 19:46:00,35.0,24.8,29.94,ENE,64,3.0,3.0,66,0.00,,,0.00,Wunderground v.1.15,2013-12-20 00:46:00,
2013-12-19 20:06:00,34.9,24.7,29.94,WNW,292,6.0,10.0,66,0.00,,,0.00,Wunderground v.1.15,2013-12-20 01:06:00,
2013-12-19 20:16:00,34.6,25.1,29.94,West,262,5.0,5.0,68,0.00,,,0.00,Wunderground v.1.15,2013-12-20 01:16:00,
2013-12-19 20:36:00,34.6,25.1,29.95,NW,313,2.0,4.0,68,0.00,,,0.00,Wunderground v.1.15,2013-12-20 01:36:00,
2013-12-19 21:06:00,34.4,24.9,29.96,NW,306,3.0,3.0,68,0.00,,,0.00,Wunderground v.1.15,2013-12-20 02:06:00,
2013-12-19 21:16:00,34.4,24.9,29.96,North,355,2.0,5.0,68,0.00,,,0.00,Wunderground v.1.15,2013-12-20 02:16:00,
2013-12-19 21:35:00,34.6,25.1,29.97,West,279,2.0,3.0,68,0.00,,,0.00,Wunderground v.1.15,2013-12-20 02:35:00,
2013-12-19 21:46:00,34.6,25.5,29.98,ENE,67,3.0,3.0,69,0.00,,,0.00,Wunderground v.1.15,2013-12-20 02:46:00,
2013-12-19 21:56:00,34.4,25.6,29.98,NE,34,3.0,3.0,70,0.00,,,0.00,Wunderground v.1.15,2013-12-20 02:56:00,
2013-12-19 22:16:00,34.4,25.6,29.98,NW,316,3.0,3.0,70,0.00,,,0.00,Wunderground v.1.15,2013-12-20 03:16:00,
2013-12-19 22:26:00,34.3,25.9,29.98,North,5,2.0,2.0,71,0.00,,,0.00,Wunderground v.1.15,2013-12-20 03:26:00,
2013-12-19 22:46:00,34.3,25.5,29.99,NNE,30,3.0,3.0,70,0.00,,,0.00,Wunderground v.1.15,2013-12-20 03:46:00,
2013-12-19 22:56:00,34.4,25.3,29.99,NW,311,5.0,6.0,69,0.00,,,0.00,Wunderground v.1.15,2013-12-20 03:56:00,
2013-12-19 23:05:00,34.7,25.6,29.98,NW,306,5.0,5.0,69,0.00,,,0.00,Wunderground v.1.15,2013-12-20 04:05:00,
2013-12-19 23:16:00,34.7,25.2,29.99,NNW,331,5.0,5.0,68,0.00,,,0.00,Wunderground v.1.15,2013-12-20 04:16:00,
2013-12-19 23:26:00,34.9,25.4,29.99,NNW,336,4.0,6.0,68,0.00,,,0.00,Wunderground v.1.15,2013-12-20 04:26:00,
2013-12-19 23:36:00,34.9,25.4,30.00,North,5,4.0,6.0,68,0.00,,,0.00,Wunderground v.1.15,2013-12-20 04:36:00,
2013-12-19 23:46:00,34.7,25.2,29.99,North,11,4.0,4.0,68,0.00,,,0.00,Wunderground v.1.15,2013-12-20 04:46:00,
2013-12-19 23:56:00,34.7,25.2,29.99,NNW,342,4.0,4.0,68,0.00,,,0.00,Wunderground v.1.15,2013-12-20 04:56:00,